QPF
0.00 0.00 0.00 0.00 0.00 0.00 0.00 0.00 0.00 0.00 0.00 0.00 0.00 0.00 0.00 0.00 0.00 0.00 0.00 0.00 0.00 0.00 0.00 0.00 0.00 0.00 0.00 0.00 0.00 0.00 0.00 0.00 0.00 0.00 0.00 0.00 0.00 0.00 0.00 0.00 0.00 0.01
0.00 0.00 0.00 0.00 0.00 0.00 0.00 0.00 0.00 0.00 0.00 0.00 0.00 0.00 0.00 0.00 0.00 0.00 0.00 0.00 0.00 0.00 0.00 0.00 0.00 0.00 0.00 0.00 0.00 0.00 0.00 0.00 0.00 0.00 0.00 0.00 0.00 0.00 0.00 0.00 0.00 0.00
0.00 0.00 0.00 0.00 0.00 0.00 0.00 0.00 0.00 0.00 0.00 0.00 0.00 0.00 0.00 0.00 0.00 0.00 0.00 0.00 0.00 0.00 0.00 0.00 0.00 0.00 0.00 0.00 0.00 0.00 0.00 0.00 0.00 0.00 0.00 0.00 0.00 0.00 0.00 0.00 0.00 0.00
0.00 0.00 0.00 0.00 0.00 0.00 0.00 0.00 0.00 0.00 0.00 0.00 0.00 0.00 0.00 0.00 0.00 0.00 0.00 0.00 0.00 0.00 0.00 0.00 0.00 0.00 0.00 0.00 0.00 0.00 0.00 0.00 0.00 0.00 0.00 0.00 0.00 0.00 0.00 0.00 0.00 0.00
0.00 0.00 0.00 0.00 0.00 0.00 0.00 0.00 0.00 0.00 0.00 0.00 0.00 0.00 0.00 0.00 0.00 0.00 0.00 0.00 0.00 0.00 0.00 0.00 0.00 0.00 0.00 0.00 0.00 0.00 0.00 0.00 0.00 0.00 0.00 0.00 0.00 0.00 0.00 0.00 0.00 0.00
0.00 0.00 0.00 0.00 0.00 0.00 0.00 0.00 0.00 0.00 0.00 0.00 0.00 0.00 0.00 0.00 0.00 0.00 0.00 0.00 0.00 0.00 0.00 0.00 0.00 0.00 0.00 0.00 0.00 0.00 0.00 0.00 0.00 0.00 0.00 0.00 0.00 0.00 0.00 0.00 0.00 0.00
0.00 0.00 0.00 0.00 0.00 0.00 0.00 0.00 0.00 0.00 0.00 0.00 0.00 0.00 0.00 0.00 0.00 0.00 0.00 0.00 0.00 0.00 0.00 0.00 0.00 0.00 0.00 0.00 0.00 0.00 0.00 0.00 0.00 0.00 0.00 0.00 0.00 0.00 0.00 0.00 0.00 0.00
0.00 0.00 0.00 0.00 0.00 0.00 0.00 0.00 0.00 0.00 0.00 0.00 0.00 0.00 0.00 0.00 0.00 0.00 0.00 0.00 0.00 0.00 0.00 0.00 0.00 0.00 0.00 0.00 0.00 0.00 0.00 0.00 0.00 0.00 0.00 0.00 0.00 0.00 0.00 0.00 0.00 0.00
0.00 0.00 0.00 0.00 0.00 0.00 0.00 0.00 0.00 0.00 0.00 0.00 0.00 0.00 0.00 0.00 0.00 0.00 0.00 0.00 0.00 0.00 0.00 0.00 0.00 0.00 0.00 0.00 0.00 0.00 0.00 0.00 0.00 0.00 0.00 0.00 0.00 0.00 0.00 0.00 0.00 0.00
0.00 0.00 0.00 0.00 0.00 0.00 0.00 0.00 0.00 0.00 0.00 0.00 0.00 0.00 0.00 0.00 0.00 0.00 0.00 0.00 0.00 0.00 0.00 0.00 0.00 0.00 0.00 0.00 0.00 0.00 0.00 0.00 0.00 0.00 0.00 0.00 0.00 0.00 0.00 0.00 0.00 0.00
0.00 0.00 0.00 0.00 0.00 0.00 0.00 0.00 0.00 0.00 0.00 0.00 0.00 0.00 0.00 0.00 0.00 0.00 0.00 0.00 0.00 0.00 0.00 0.00 0.00 0.00 0.00 0.00 0.00 0.00 0.00 0.00 0.00 0.00 0.00 0.00 0.00 0.00 0.00 0.00 0.00 0.00
0.00 0.00 0.00 0.00 0.00 0.00 0.00 0.00 0.00 0.00 0.00 0.00 0.00 0.00 0.00 0.00 0.00 0.00 0.00 0.00 0.00 0.00 0.00 0.00 0.00 0.00 0.00 0.00 0.00 0.00 0.00 0.00 0.00 0.00 0.00 0.00 0.00 0.00 0.00 0.00 0.00 0.00
0.00 0.00 0.00 0.00 0.00 0.00 0.00 0.00 0.00 0.00 0.00 0.00 0.00 0.00 0.00 0.00 0.00 0.00 0.00 0.00 0.00 0.00 0.00 0.00 0.00 0.00 0.00 0.00 0.00 0.00 0.00 0.00 0.00 0.00 0.00 0.00 0.00 0.00 0.00 0.00 0.00 0.00
0.00 0.00 0.00 0.00 0.00 0.00 0.00 0.00 0.00 0.00 0.00 0.00 0.00 0.00 0.00 0.00 0.00 0.00 0.00 0.00 0.00 0.00 0.00 0.00 0.00 0.00 0.00 0.00 0.00 0.00 0.00 0.00 0.00 0.00 0.00 0.00 0.00 0.00 0.00 0.00 0.00 0.00
0.00 0.00 0.00 0.00 0.00 0.00 0.00 0.00 0.00 0.00 0.00 0.00 0.00 0.00 0.00 0.00 0.00 0.00 0.00 0.00 0.00 0.00 0.00 0.00 0.00 0.00 0.00 0.00 0.00 0.00 0.00 0.00 0.00 0.00 0.00 0.00 0.00 0.00 0.00 0.00 0.00 0.00
0.00 0.00 0.00 0.00 0.00 0.00 0.00 0.00 0.00 0.00 0.00 0.00 0.00 0.00 0.00 0.00 0.00 0.00 0.00 0.00 0.00 0.00 0.00 0.00 0.00 0.00 0.00 0.00 0.00 0.00 0.00 0.00 0.00 0.00 0.00 0.00 0.00 0.00 0.00 0.00 0.00 0.00
0.00 0.00 0.00 0.00 0.00 0.00 0.00 0.00 0.00 0.00 0.00 0.00 0.00 0.00 0.00 0.00 0.00 0.00 0.00 0.00 0.00 0.00 0.00 0.00 0.00 0.00 0.00 0.00 0.00 0.00 0.00 0.00 0.00 0.00 0.00 0.00 0.00 0.00 0.00 0.00 0.00 0.00
0.00 0.00 0.00 0.00 0.00 0.00 0.00 0.00 0.00 0.00 0.00 0.00 0.00 0.00 0.00 0.00 0.00 0.00 0.00 0.00 0.00 0.00 0.00 0.00 0.00 0.00 0.00 0.00 0.00 0.00 0.00 0.00 0.00 0.00 0.00 0.00 0.00 0.00 0.00 0.00 0.00 0.00
0.00 0.00 0.00 0.00 0.00 0.00 0.00 0.00 0.00 0.00 0.00 0.00 0.00 0.00 0.00 0.00 0.00 0.00 0.00 0.00 0.00 0.00 0.00 0.00 0.00 0.00 0.00 0.00 0.00 0.00 0.00 0.00 0.00 0.00 0.00 0.00 0.00 0.00 0.00 0.00 0.00 0.00
0.00 0.00 0.00 0.00 0.00 0.00 0.00 0.00 0.00 0.00 0.00 0.00 0.00 0.00 0.00 0.00 0.00 0.00 0.00 0.00 0.00 0.00 0.00 0.00 0.00 0.00 0.00 0.00 0.00 0.00 0.00 0.00 0.00 0.00 0.00 0.00 0.00 0.00 0.00 0.00 0.00 0.00
0.00 0.00 0.00 0.00 0.00 0.00 0.00 0.00 0.00 0.00 0.00 0.00 0.00 0.00 0.00 0.00 0.00 0.00 0.00 0.00 0.00 0.00 0.00 0.00 0.00 0.00 0.00 0.00 0.00 0.00 0.00 0.00 0.00 0.00 0.00 0.00 0.00 0.00 0.00 0.00 0.00 0.00
0.00 0.00 0.00 0.00 0.00 0.00 0.00 0.00 0.00 0.00 0.00 0.00 0.00 0.00 0.00 0.00 0.00 0.00 0.00 0.00 0.00 0.00 0.00 0.00 0.00 0.00 0.00 0.00 0.00 0.00 0.00 0.00 0.00 0.00 0.00 0.00 0.00 0.00 0.00 0.00 0.00 0.00
0.00 0.00 0.00 0.00 0.00 0.00 0.00 0.00 0.00 0.00 0.00 0.00 0.00 0.00 0.00 0.00 0.00 0.00 0.00 0.00 0.00 0.00 0.00 0.00 0.00 0.00 0.00 0.00 0.00 0.00 0.00 0.00 0.00 0.00 0.00 0.00 0.00 0.00 0.00 0.00 0.00 0.00
0.00 0.00 0.00 0.00 0.00 0.00 0.00 0.00 0.00 0.00 0.00 0.00 0.00 0.00 0.00 0.00 0.00 0.00 0.00 0.00 0.00 0.00 0.00 0.00 0.00 0.00 0.00 0.00 0.00 0.00 0.00 0.00 0.00 0.00 0.00 0.00 0.00 0.00 0.00 0.00 0.00 0.00
0.00 0.00 0.00 0.00 0.00 0.00 0.00 0.00 0.00 0.00 0.00 0.00 0.00 0.00 0.00 0.00 0.00 0.00 0.00 0.00 0.00 0.00 0.00 0.00 0.00 0.00 0.00 0.00 0.00 0.00 0.00 0.00 0.00 0.00 0.00 0.00 0.00 0.00 0.00 0.00 0.00 0.00
0.00 0.00 0.00 0.00 0.00 0.00 0.00 0.00 0.00 0.00 0.00 0.00 0.00 0.00 0.00 0.00 0.00 0.00 0.00 0.00 0.00 0.00 0.00 0.00 0.00 0.00 0.00 0.00 0.00 0.00 0.00 0.00 0.00 0.00 0.00 0.00 0.00 0.00 0.00 0.00 0.00 0.00
MSLP
1017.14 1017.14 1017.34 1017.38 1017.42 1017.54 1017.62 1017.66 1017.66 1017.82 1017.98 1017.82 1017.74 1017.74 1017.94 1018.26 1018.54 1018.62 1018.66 1018.70 1018.62 1018.54 1018.50 1018.42 1018.26 1018.18 1018.02 1017.78 1017.50 1017.30 1017.02 1016.86 1016.70 1016.50 1016.38 1016.30 1016.22 1016.10 1015.98 1015.82 1015.70 1015.50
1017.46 1017.34 1017.46 1017.58 1017.78 1017.86 1017.98 1017.98 1018.02 1017.90 1018.10 1018.26 1018.38 1018.34 1018.42 1018.74 1018.82 1018.86 1019.02 1018.98 1018.82 1018.78 1018.74 1018.66 1018.54 1018.42 1018.30 1018.14 1017.98 1017.86 1017.58 1017.18 1017.10 1016.74 1016.66 1016.58 1016.38 1016.22 1016.14 1015.98 1015.78 1015.46
1017.78 1017.74 1017.70 1017.86 1018.06 1018.22 1018.26 1018.26 1018.26 1018.26 1018.38 1018.70 1018.82 1018.90 1019.06 1019.22 1019.26 1019.14 1019.18 1019.22 1019.06 1019.02 1018.94 1018.86 1018.74 1018.62 1018.50 1018.30 1018.14 1018.02 1017.82 1017.70 1017.54 1017.18 1017.10 1017.02 1016.74 1016.50 1016.22 1015.98 1015.70 1015.58
1017.94 1017.98 1018.02 1018.06 1018.06 1018.14 1018.14 1018.14 1018.34 1018.54 1018.70 1018.98 1019.34 1019.42 1019.38 1019.38 1019.42 1019.42 1019.26 1019.18 1019.18 1019.06 1018.90 1018.86 1018.94 1018.86 1018.78 1018.62 1018.54 1018.26 1018.10 1017.94 1017.66 1017.62 1017.62 1017.38 1017.18 1016.98 1016.70 1016.42 1016.10 1015.66
1018.02 1018.02 1017.98 1018.06 1018.18 1018.30 1018.34 1018.54 1018.78 1018.94 1019.22 1019.34 1019.38 1019.46 1019.54 1019.62 1019.62 1019.54 1019.46 1019.30 1019.26 1019.14 1019.02 1019.10 1019.06 1018.94 1018.82 1018.66 1018.46 1018.30 1018.22 1018.10 1017.94 1018.02 1017.98 1017.78 1017.50 1017.26 1016.94 1016.78 1016.62 1016.34
1017.86 1017.86 1017.98 1018.14 1018.26 1018.42 1018.66 1018.82 1018.82 1018.94 1019.18 1019.50 1019.66 1019.66 1019.78 1019.70 1019.78 1019.78 1019.66 1019.50 1019.30 1019.22 1019.22 1019.18 1019.06 1018.86 1018.86 1018.74 1018.54 1018.38 1018.30 1018.26 1018.22 1018.18 1018.06 1017.94 1017.74 1017.54 1017.34 1017.10 1016.90 1016.70
1018.30 1018.30 1018.42 1018.58 1018.70 1018.90 1019.10 1019.30 1019.34 1019.34 1019.38 1019.46 1019.62 1019.98 1019.90 1019.98 1019.94 1019.98 1019.78 1019.66 1019.54 1019.54 1019.50 1019.34 1019.22 1019.14 1019.02 1018.94 1018.78 1018.66 1018.54 1018.50 1018.38 1018.26 1018.14 1017.98 1017.90 1017.74 1017.46 1017.22 1017.02 1016.82
1018.54 1018.70 1018.94 1019.10 1019.22 1019.34 1019.54 1019.62 1019.70 1019.66 1019.66 1019.66 1019.94 1020.14 1020.14 1020.10 1020.14 1020.18 1020.06 1019.98 1019.90 1019.74 1019.58 1019.46 1019.30 1019.18 1019.10 1019.06 1018.98 1018.94 1018.86 1018.66 1018.58 1018.46 1018.34 1018.22 1018.06 1017.86 1017.70 1017.54 1017.42 1017.14
1018.86 1019.22 1019.38 1019.58 1019.74 1019.86 1019.98 1020.10 1020.18 1020.10 1019.98 1020.14 1020.14 1020.26 1020.34 1020.38 1020.38 1020.38 1020.34 1020.14 1019.98 1019.86 1019.74 1019.58 1019.46 1019.38 1019.26 1019.22 1019.18 1019.10 1018.98 1018.82 1018.74 1018.62 1018.50 1018.38 1018.22 1018.06 1017.90 1017.66 1017.46 1017.26
1019.30 1019.54 1019.70 1019.90 1020.10 1020.26 1020.38 1020.42 1020.42 1020.38 1020.30 1020.42 1020.38 1020.22 1020.26 1020.42 1020.46 1020.30 1020.18 1020.06 1019.94 1019.82 1019.82 1019.74 1019.62 1019.70 1019.66 1019.62 1019.42 1019.26 1019.10 1019.02 1018.86 1018.66 1018.50 1018.34 1018.30 1018.30 1018.18 1017.98 1017.74 1017.58
1019.46 1019.66 1020.02 1020.30 1020.46 1020.50 1020.54 1020.58 1020.62 1020.66 1020.54 1020.42 1020.46 1020.42 1020.46 1020.46 1020.50 1020.38 1020.10 1020.02 1020.02 1019.94 1019.98 1019.98 1020.14 1020.26 1020.26 1020.18 1019.98 1019.70 1019.42 1019.18 1018.94 1018.70 1018.50 1018.42 1018.50 1018.54 1018.50 1018.42 1018.22 1017.98
1019.78 1019.98 1020.30 1020.50 1020.58 1020.70 1020.86 1020.82 1020.70 1020.66 1020.74 1020.66 1020.58 1020.66 1020.70 1020.58 1020.46 1020.38 1020.22 1020.10 1020.10 1020.30 1020.50 1020.70 1020.74 1020.90 1020.94 1020.86 1020.58 1020.18 1019.78 1019.22 1019.06 1018.90 1018.78 1018.70 1018.70 1018.62 1018.54 1018.26 1017.98 1017.82
1020.02 1020.26 1020.50 1020.70 1020.86 1021.02 1020.98 1020.98 1020.98 1020.90 1020.82 1020.82 1020.70 1020.62 1020.54 1020.46 1020.34 1020.26 1020.22 1020.22 1020.42 1020.66 1020.98 1021.10 1021.22 1021.34 1021.46 1021.34 1021.02 1020.54 1020.22 1019.58 1019.30 1019.26 1019.10 1018.94 1018.70 1018.38 1018.10 1017.86 1017.70 1017.66
1020.38 1020.54 1020.66 1020.86 1021.02 1021.06 1021.06 1021.02 1020.98 1020.98 1021.06 1021.02 1020.86 1020.74 1020.66 1020.46 1020.26 1020.22 1020.30 1020.50 1020.78 1020.98 1021.22 1021.46 1021.58 1021.78 1021.90 1021.78 1021.38 1020.86 1020.50 1019.90 1019.54 1019.38 1019.26 1018.94 1018.78 1018.50 1018.22 1018.02 1017.82 1017.70
1020.74 1020.86 1020.94 1021.06 1021.10 1021.22 1021.26 1021.18 1021.14 1021.10 1021.02 1021.02 1020.98 1020.90 1020.74 1020.62 1020.42 1020.46 1020.50 1020.74 1021.02 1021.26 1021.38 1021.62 1021.94 1022.26 1022.34 1022.38 1022.06 1021.26 1020.78 1020.10 1019.62 1019.46 1019.34 1019.14 1018.90 1018.58 1018.46 1018.34 1018.10 1017.86
1020.82 1020.98 1021.06 1021.14 1021.10 1021.14 1021.18 1021.18 1021.18 1021.18 1021.14 1021.18 1021.02 1020.98 1020.98 1020.98 1020.98 1020.90 1020.94 1021.14 1021.30 1021.58 1021.74 1021.86 1022.22 1022.54 1022.98 1022.82 1022.58 1022.22 1021.30 1020.38 1019.66 1019.62 1019.46 1019.34 1019.22 1018.94 1018.74 1018.54 1018.30 1018.02
1020.62 1020.78 1020.94 1021.06 1021.06 1021.02 1021.06 1021.14 1021.26 1021.30 1021.30 1021.42 1021.38 1021.38 1021.38 1021.34 1021.26 1021.30 1021.34 1021.42 1021.54 1021.86 1022.10 1022.30 1022.66 1023.14 1023.30 1022.94 1022.50 1021.94 1021.58 1020.58 1019.86 1019.82 1019.78 1019.66 1019.54 1019.42 1019.34 1019.14 1018.78 1018.38
1020.46 1020.62 1020.82 1020.90 1020.94 1020.98 1020.98 1021.06 1021.26 1021.46 1021.50 1021.50 1021.54 1021.62 1021.70 1021.62 1021.62 1021.62 1021.62 1021.66 1021.82 1022.02 1022.42 1022.66 1022.82 1023.50 1023.38 1022.98 1022.46 1021.86 1021.46 1021.06 1020.06 1020.14 1020.14 1020.06 1020.02 1019.94 1019.86 1019.78 1019.50 1019.14
1020.42 1020.62 1020.78 1020.86 1020.90 1021.02 1021.22 1021.26 1021.38 1021.50 1021.62 1021.70 1021.70 1021.74 1021.86 1021.98 1021.98 1021.98 1021.98 1021.86 1021.98 1022.26 1022.74 1022.94 1023.06 1023.62 1023.50 1023.06 1022.58 1022.02 1021.50 1021.10 1020.26 1020.38 1020.26 1020.42 1020.50 1020.38 1020.30 1020.26 1020.10 1019.78
1020.38 1020.54 1020.70 1020.82 1020.86 1021.02 1021.34 1021.46 1021.54 1021.66 1021.70 1021.66 1021.62 1021.62 1021.70 1021.90 1022.18 1022.22 1022.30 1022.34 1022.30 1022.38 1022.66 1023.06 1023.38 1023.86 1023.58 1023.10 1022.66 1022.06 1021.58 1021.14 1020.46 1020.58 1020.66 1020.74 1020.78 1020.74 1020.74 1020.66 1020.58 1020.30
1020.26 1020.54 1020.70 1020.86 1021.10 1021.34 1021.46 1021.58 1021.70 1021.74 1021.58 1021.50 1021.58 1021.62 1021.66 1021.90 1022.10 1022.30 1022.46 1022.42 1022.42 1022.46 1022.78 1023.18 1023.66 1023.82 1023.50 1023.18 1022.66 1022.10 1021.46 1020.90 1020.54 1020.78 1020.86 1020.98 1021.06 1020.98 1020.90 1020.98 1020.94 1020.66
1020.42 1020.66 1020.86 1021.06 1021.26 1021.46 1021.62 1021.74 1021.86 1021.90 1021.94 1021.82 1021.70 1021.90 1022.18 1022.22 1022.38 1022.34 1022.38 1022.42 1022.54 1022.82 1023.10 1023.34 1023.74 1023.98 1023.62 1023.18 1022.74 1022.14 1021.42 1020.58 1020.66 1020.82 1020.98 1021.02 1021.10 1021.02 1020.90 1021.02 1021.10 1020.94
1020.38 1020.70 1020.98 1021.18 1021.38 1021.54 1021.70 1021.86 1021.90 1021.78 1021.78 1021.94 1022.22 1022.46 1022.54 1022.66 1022.86 1023.02 1022.94 1022.98 1023.02 1023.06 1023.22 1023.46 1023.66 1023.98 1023.82 1023.46 1022.98 1022.46 1021.58 1020.58 1020.62 1020.74 1021.06 1021.02 1020.98 1021.10 1020.94 1021.06 1021.34 1021.18
1020.62 1020.74 1020.98 1021.22 1021.50 1021.66 1021.82 1021.94 1021.90 1021.90 1022.06 1022.18 1022.30 1022.42 1022.58 1022.74 1022.98 1023.14 1023.26 1023.38 1023.54 1023.50 1023.42 1023.50 1023.70 1023.98 1023.90 1023.62 1023.22 1022.82 1022.06 1020.78 1020.58 1021.02 1021.22 1021.06 1020.98 1021.06 1020.98 1020.94 1021.26 1021.50
1020.82 1020.98 1021.14 1021.38 1021.62 1021.78 1021.86 1021.90 1022.06 1022.34 1022.42 1022.38 1022.38 1022.46 1022.58 1022.66 1022.86 1023.06 1023.34 1023.50 1023.66 1023.74 1023.74 1023.54 1023.78 1024.06 1024.10 1023.82 1023.42 1022.98 1022.38 1021.30 1020.94 1021.06 1021.18 1021.14 1021.02 1020.94 1020.90 1020.94 1020.86 1021.02
1021.22 1021.34 1021.62 1021.78 1021.74 1021.90 1021.98 1022.14 1022.22 1022.22 1022.26 1022.22 1022.22 1022.30 1022.54 1022.74 1022.90 1023.10 1023.26 1023.42 1023.62 1023.78 1023.86 1023.74 1023.82 1024.06 1024.38 1024.10 1023.78 1023.38 1022.98 1022.22 1021.58 1021.50 1021.26 1021.14 1021.18 1021.06 1020.98 1020.94 1020.98 1020.94
Thickness
5659 5659 5659 5660 5659 5659 5659 5658 5658 5658 5657 5657 5658 5657 5655 5653 5650 5649 5648 5647 5647 5647 5646 5646 5646 5646 5646 5647 5648 5648 5649 5650 5649 5650 5650 5649 5648 5649 5648 5648 5648 5648
5654 5655 5656 5655 5654 5654 5653 5653 5654 5654 5653 5652 5651 5651 5650 5647 5646 5645 5643 5642 5643 5642 5642 5641 5641 5641 5641 5642 5642 5642 5643 5643 5644 5644 5644 5644 5644 5644 5643 5644 5644 5644
5649 5651 5652 5651 5651 5649 5649 5650 5650 5650 5649 5647 5645 5644 5643 5641 5641 5640 5639 5639 5638 5638 5638 5637 5637 5637 5636 5637 5637 5637 5637 5637 5638 5638 5638 5637 5638 5638 5639 5639 5640 5640
5646 5647 5647 5647 5647 5647 5647 5647 5646 5645 5643 5641 5639 5639 5638 5637 5636 5636 5636 5636 5635 5635 5635 5633 5632 5632 5631 5632 5632 5632 5632 5632 5633 5632 5631 5631 5632 5632 5633 5634 5634 5636
5643 5645 5644 5645 5644 5644 5644 5643 5642 5640 5638 5637 5636 5634 5633 5633 5632 5631 5631 5632 5631 5631 5631 5630 5629 5629 5628 5628 5628 5629 5628 5627 5627 5626 5624 5625 5625 5625 5626 5626 5627 5628
5641 5642 5642 5641 5641 5640 5639 5638 5637 5637 5635 5633 5632 5630 5629 5628 5627 5627 5627 5628 5628 5627 5627 5626 5626 5626 5624 5624 5625 5624 5624 5623 5622 5621 5619 5620 5620 5620 5620 5620 5620 5621
5637 5638 5637 5635 5635 5634 5633 5632 5632 5632 5631 5630 5628 5625 5625 5624 5623 5622 5622 5623 5623 5622 5622 5622 5621 5621 5620 5619 5619 5618 5618 5617 5616 5616 5615 5615 5614 5614 5614 5615 5615 5615
5632 5632 5630 5629 5629 5628 5627 5626 5625 5626 5626 5625 5623 5621 5620 5620 5619 5618 5618 5618 5618 5617 5618 5617 5617 5616 5615 5615 5613 5612 5612 5611 5611 5610 5609 5609 5608 5608 5609 5608 5608 5608
5627 5626 5624 5624 5623 5621 5621 5619 5619 5620 5620 5619 5618 5617 5616 5615 5614 5613 5613 5614 5614 5613 5613 5613 5612 5612 5610 5610 5608 5607 5607 5606 5606 5605 5604 5603 5603 5602 5602 5602 5602 5602
5622 5621 5619 5618 5617 5616 5616 5614 5613 5614 5614 5614 5614 5614 5613 5612 5610 5610 5610 5610 5610 5610 5609 5608 5607 5606 5604 5603 5603 5602 5602 5601 5600 5600 5600 5599 5598 5596 5595 5595 5595 5595
5617 5616 5614 5613 5612 5611 5611 5610 5610 5610 5609 5610 5610 5609 5609 5608 5607 5607 5608 5607 5607 5605 5604 5602 5600 5598 5596 5595 5595 5595 5595 5595 5595 5595 5595 5594 5592 5590 5588 5588 5587 5588
5613 5612 5610 5608 5607 5606 5605 5605 5606 5606 5605 5606 5606 5605 5605 5604 5604 5604 5604 5604 5602 5600 5597 5595 5592 5590 5588 5587 5587 5587 5588 5590 5590 5589 5588 5587 5586 5584 5584 5584 5583 5582
5608 5606 5605 5604 5603 5601 5601 5601 5601 5601 5601 5601 5601 5601 5601 5601 5601 5601 5600 5599 5597 5594 5590 5587 5585 5583 5580 5579 5580 5581 5581 5583 5583 5582 5581 5581 5580 5580 5580 5580 5580 5578
5602 5600 5600 5599 5598 5597 5597 5597 5597 5597 5597 5597 5597 5597 5597 5597 5598 5598 5596 5594 5590 5588 5584 5581 5578 5575 5573 5572 5572 5573 5574 5576 5577 5576 5575 5574 5574 5574 5574 5573 5573 5572
5596 5595 5595 5594 5593 5593 5592 5592 5593 5593 5592 5592 5592 5593 5592 5593 5593 5592 5591 5588 5584 5582 5579 5575 5572 5568 5565 5564 5563 5566 5568 5570 5571 5570 5569 5568 5567 5567 5567 5565 5565 5565
5592 5591 5591 5590 5590 5590 5589 5589 5589 5588 5588 5587 5587 5588 5587 5586 5586 5585 5584 5581 5578 5575 5572 5569 5565 5560 5558 5557 5557 5558 5560 5564 5565 5564 5562 5561 5560 5559 5559 5557 5557 5558
5590 5589 5588 5587 5587 5587 5586 5585 5584 5583 5583 5582 5582 5582 5580 5580 5579 5578 5577 5574 5572 5568 5565 5561 5557 5553 5551 5552 5553 5553 5555 5557 5559 5557 5555 5553 5552 5551 5549 5547 5548 5548
5588 5587 5586 5585 5584 5583 5583 5582 5580 5579 5578 5577 5577 5575 5574 5574 5573 5571 5570 5568 5566 5562 5558 5554 5551 5547 5546 5547 5548 5549 5549 5550 5552 5550 5547 5545 5543 5541 5539 5537 5536 5536
5585 5584 5582 5581 5581 5579 5578 5577 5575 5574 5573 5572 5572 5570 5569 5568 5566 5565 5563 5562 5560 5556 5551 5548 5544 5541 5541 5542 5543 5544 5543 5544 5545 5543 5540 5537 5534 5532 5530 5527 5526 5525
5582 5581 5579 5578 5577 5575 5573 5572 5570 5570 5569 5569 5568 5567 5566 5564 5560 5559 5557 5554 5554 5550 5546 5542 5539 5536 5536 5536 5538 5538 5538 5538 5539 5537 5533 5529 5526 5523 5521 5518 5516 5515
5578 5576 5575 5573 5572 5569 5568 5567 5566 5565 5565 5564 5564 5563 5561 5559 5556 5554 5551 5549 5548 5545 5541 5536 5532 5531 5531 5531 5532 5533 5534 5535 5533 5529 5526 5522 5519 5516 5514 5510 5507 5506
5574 5572 5570 5568 5566 5564 5563 5561 5560 5559 5559 5559 5558 5556 5554 5552 5549 5548 5546 5545 5542 5538 5536 5531 5527 5526 5526 5526 5527 5527 5529 5531 5529 5524 5520 5517 5514 5511 5508 5504 5500 5498
5570 5567 5565 5563 5561 5559 5557 5555 5555 5556 5554 5553 5551 5549 5547 5545 5542 5540 5539 5537 5535 5533 5530 5527 5523 5520 5520 5520 5521 5521 5524 5527 5525 5519 5515 5512 5509 5506 5503 5499 5495 5491
5564 5562 5560 5557 5555 5553 5551 5550 5550 5550 5548 5547 5545 5544 5543 5540 5537 5535 5532 5530 5528 5526 5525 5522 5518 5515 5514 5515 5515 5515 5518 5521 5520 5514 5509 5507 5504 5501 5498 5494 5490 5485
5558 5556 5554 5551 5549 5548 5547 5546 5545 5544 5543 5543 5542 5540 5539 5536 5534 5531 5528 5526 5523 5520 5518 5517 5514 5510 5509 5509 5509 5509 5511 5514 5513 5509 5505 5502 5499 5496 5493 5490 5486 5482
5551 5549 5546 5545 5544 5543 5542 5541 5540 5540 5540 5539 5538 5537 5534 5532 5530 5528 5525 5522 5519 5516 5514 5512 5510 5507 5503 5502 5503 5502 5502 5504 5505 5502 5499 5497 5494 5492 5489 5485 5482 5478